,,PA_Meas_PMT16A,,PR_Meas_QMR101_102,,RH_Meas_QMH101,,SR_Meas_QMS101,,TA_Meas_QMH101,,GenWind,,GenWind,
time,status,PA,status,PR,status,RH,status,SR,status,TA,status,DirAvg,status,SpdAvg,
2011-09-02, 00:00:04,VALID,917.265,VALID,0,VALID,96.5582,VALID,0.107441,VALID,21.3006,VALID,357,VALID,0.725781,
2011-09-02, 00:01:04,VALID,917.251,VALID,0,VALID,96.5506,VALID,0.107441,VALID,21.2811,VALID,357,VALID,0.857422,
2011-09-02, 00:02:04,VALID,917.251,VALID,0,VALID,96.6268,VALID,0.107441,VALID,21.26,VALID,357,VALID,0.355469,
2011-09-02, 00:03:04,VALID,917.223,VALID,0,VALID,96.5811,VALID,0.107441,VALID,21.26,VALID,357,VALID,0.452734,
2011-09-02, 00:04:04,VALID,917.215,VALID,0,VALID,96.5963,VALID,0.107441,VALID,21.2795,VALID,357,VALID,0.0546875,
2011-09-02, 00:05:04,VALID,917.164,VALID,0,VALID,96.5734,VALID,0.107441,VALID,21.3006,VALID,357,VALID,0.228906,
2011-09-02, 00:06:04,VALID,917.172,VALID,0,VALID,96.5353,VALID,0.107441,VALID,21.2795,VALID,357,VALID,0.436719,
2011-09-02, 00:07:04,VALID,917.188,VALID,0,VALID,96.5734,VALID,0.107441,VALID,21.3006,VALID,357,VALID,0.745313,
2011-09-02, 00:08:04,VALID,917.181,VALID,0,VALID,96.5201,VALID,0.107441,VALID,21.2811,VALID,357,VALID,0.610156,
2011-09-02, 00:09:04,VALID,917.196,VALID,0,VALID,96.5506,VALID,0,VALID,21.2616,VALID,357,VALID,0.617969,
2011-09-02, 00:10:04,VALID,917.182,VALID,0,VALID,96.5582,VALID,0.107441,VALID,21.2405,VALID,357,VALID,0.570703,
2011-09-02, 00:11:04,VALID,917.18,VALID,0,VALID,96.5353,VALID,0,VALID,21.2226,VALID,357,VALID,0.729297,
2011-09-02, 00:12:04,VALID,917.175,VALID,0,VALID,96.5353,VALID,0.107441,VALID,21.2226,VALID,357,VALID,0.446094,
2011-09-02, 00:13:04,VALID,917.141,VALID,0,VALID,96.5658,VALID,0.107441,VALID,21.2421,VALID,357,VALID,0.305078,
2011-09-02, 00:14:04,VALID,917.154,VALID,0,VALID,96.5658,VALID,0.107441,VALID,21.221,VALID,357,VALID,0,
2011-09-02, 00:15:04,VALID,917.163,VALID,0,VALID,96.5734,VALID,0.107441,VALID,21.221,VALID,357,VALID,0.382813,
2011-09-02, 00:16:04,VALID,917.147,VALID,0,VALID,96.5658,VALID,0.107441,VALID,21.2616,VALID,357,VALID,0.233203,
2011-09-02, 00:17:04,VALID,917.119,VALID,0,VALID,96.5658,VALID,0.107441,VALID,21.2421,VALID,357,VALID,0.110156,
2011-09-02, 00:18:04,VALID,917.093,VALID,0,VALID,96.5734,VALID,0.107441,VALID,21.2405,VALID,357,VALID,0.0269531,
2011-09-02, 00:19:04,VALID,917.11,VALID,0,VALID,96.5734,VALID,0.107441,VALID,21.2405,VALID,357,VALID,0.251563,
2011-09-02, 00:20:04,VALID,917.087,VALID,0,VALID,96.5734,VALID,0.107441,VALID,21.26,VALID,357,VALID,0.0484375,
2011-09-02, 00:21:04,VALID,917.106,VALID,0,VALID,96.5963,VALID,0.107441,VALID,21.26,VALID,357,VALID,0,
2011-09-02, 00:22:04,VALID,917.082,VALID,0,VALID,96.6115,VALID,0.107441,VALID,21.26,VALID,357,VALID,0,
2011-09-02, 00:23:04,VALID,917.058,VALID,0,VALID,96.5811,VALID,0.107441,VALID,21.26,VALID,357,VALID,0.0527344,
2011-09-02, 00:24:04,VALID,917.077,VALID,0,VALID,96.5811,VALID,0,VALID,21.2616,VALID,357,VALID,0.0941406,
2011-09-02, 00:25:04,VALID,917.065,VALID,0,VALID,96.5734,VALID,0,VALID,21.2827,VALID,357,VALID,0.140234,
2011-09-02, 00:26:04,VALID,917.052,VALID,0,VALID,96.5811,VALID,0,VALID,21.2632,VALID,357,VALID,0,
2011-09-02, 00:27:04,VALID,917.015,VALID,0,VALID,96.5963,VALID,0,VALID,21.2421,VALID,357,VALID,0,
2011-09-02, 00:28:04,VALID,917.032,VALID,0,VALID,96.5963,VALID,0,VALID,21.2616,VALID,357,VALID,0.00273437,
2011-09-02, 00:29:04,VALID,916.987,VALID,0,VALID,96.5734,VALID,0,VALID,21.2421,VALID,357,VALID,0,
2011-09-02, 00:30:04,VALID,916.992,VALID,0,VALID,96.6192,VALID,0,VALID,21.2827,VALID,357,VALID,0,
2011-09-02, 00:31:04,VALID,916.977,VALID,0,VALID,96.5506,VALID,0,VALID,21.2421,VALID,357,VALID,0.408594,
2011-09-02, 00:32:04,VALID,916.981,VALID,0,VALID,96.5124,VALID,0,VALID,21.2437,VALID,357,VALID,0.00585938,
2011-09-02, 00:33:04,VALID,916.947,VALID,0,VALID,96.6115,VALID,0,VALID,21.2827,VALID,357,VALID,0.563281,
2011-09-02, 00:34:04,VALID,916.868,VALID,0,VALID,96.6725,VALID,0,VALID,21.3217,VALID,357,VALID,0.316406,
2011-09-02, 00:35:04,VALID,916.88,VALID,0,VALID,96.6573,VALID,0,VALID,21.3396,VALID,357,VALID,0,
2011-09-02, 00:36:04,VALID,916.825,VALID,0,VALID,96.6497,VALID,0,VALID,21.3803,VALID,357,VALID,0,
2011-09-02, 00:37:04,VALID,916.784,VALID,0,VALID,96.5887,VALID,0,VALID,21.3412,VALID,357,VALID,0,
2011-09-02, 00:38:04,VALID,916.812,VALID,0,VALID,96.5887,VALID,0,VALID,21.3412,VALID,357,VALID,0,
2011-09-02, 00:39:04,VALID,916.792,VALID,0,VALID,96.5963,VALID,0,VALID,21.3412,VALID,357,VALID,0.0703125,
2011-09-02, 00:40:04,VALID,916.801,VALID,0,VALID,96.4972,VALID,0,VALID,21.3217,VALID,357,VALID,0.300781,
2011-09-02, 00:41:04,VALID,916.783,VALID,0,VALID,96.4972,VALID,0,VALID,21.2632,VALID,357,VALID,0.0269531,
2011-09-02, 00:42:04,VALID,916.784,VALID,0,VALID,96.4591,VALID,0,VALID,21.2437,VALID,357,VALID,0.0679687,
2011-09-02, 00:43:04,VALID,916.765,VALID,0,VALID,96.4972,VALID,0,VALID,21.2437,VALID,357,VALID,0.350391,
2011-09-02, 00:44:04,VALID,916.769,VALID,0,VALID,96.5811,VALID,0,VALID,21.2437,VALID,357,VALID,0.294531,
2011-09-02, 00:45:04,VALID,916.788,VALID,0,VALID,96.6268,VALID,0,VALID,21.2827,VALID,357,VALID,0.821484,
2011-09-02, 00:46:04,VALID,916.785,VALID,0,VALID,96.6039,VALID,0,VALID,21.2827,VALID,357,VALID,0.329688,
2011-09-02, 00:47:04,VALID,916.785,VALID,0,VALID,96.5506,VALID,0,VALID,21.2632,VALID,357,VALID,0.183203,
2011-09-02, 00:48:04,VALID,916.8,VALID,0,VALID,96.5811,VALID,0,VALID,21.2632,VALID,357,VALID,0.132422,
2011-09-02, 00:49:04,VALID,916.791,VALID,0,VALID,96.5582,VALID,0,VALID,21.2632,VALID,357,VALID,0.219141,
2011-09-02, 00:50:04,VALID,916.768,VALID,0,VALID,96.5658,VALID,0,VALID,21.2616,VALID,357,VALID,0.0316406,
2011-09-02, 00:51:04,VALID,916.797,VALID,0,VALID,96.5582,VALID,0,VALID,21.2827,VALID,357,VALID,0.219531,
2011-09-02, 00:52:04,VALID,916.748,VALID,0,VALID,96.5506,VALID,0,VALID,21.2827,VALID,357,VALID,0,
2011-09-02, 00:53:04,VALID,916.738,VALID,0,VALID,96.5048,VALID,0,VALID,21.2632,VALID,357,VALID,0.137109,
2011-09-02, 00:54:04,VALID,916.722,VALID,0,VALID,96.5353,VALID,0,VALID,21.26,VALID,357,VALID,0.213281,
2011-09-02, 00:55:04,VALID,916.719,VALID,0,VALID,96.4667,VALID,0.107441,VALID,21.221,VALID,357,VALID,0.461328,
2011-09-02, 00:56:04,VALID,916.68,VALID,0,VALID,96.4743,VALID,0.107441,VALID,21.2226,VALID,357,VALID,0.399609,
2011-09-02, 00:57:04,VALID,916.715,VALID,0,VALID,96.5124,VALID,0.107441,VALID,21.2015,VALID,357,VALID,0.638281,
2011-09-02, 00:58:04,VALID,916.718,VALID,0,VALID,96.4515,VALID,0.107441,VALID,21.2031,VALID,251,VALID,1.28398,
2011-09-02, 00:59:04,VALID,916.733,VALID,0,VALID,96.4438,VALID,0,VALID,21.164,VALID,251,VALID,0.902344,
2011-09-02, 01:00:04,VALID,916.756,VALID,0,VALID,96.36,VALID,0,VALID,21.0665,VALID,265,VALID,1.04922,
2011-09-02, 01:01:04,VALID,916.761,VALID,0,VALID,96.4133,VALID,0.107441,VALID,21.0665,VALID,264,VALID,1.22969,
2011-09-02, 01:02:04,VALID,916.784,VALID,0,VALID,96.4515,VALID,0,VALID,21.0275,VALID,264,VALID,0.929688,
2011-09-02, 01:03:04,VALID,916.782,VALID,0,VALID,96.4057,VALID,0,VALID,20.969,VALID,252,VALID,1.60938,
2011-09-02, 01:04:04,VALID,916.859,VALID,0,VALID,96.3981,VALID,0,VALID,20.9105,VALID,252,VALID,1.79375,
2011-09-02, 01:05:04,VALID,916.844,VALID,0,VALID,96.4896,VALID,0.107441,VALID,20.9105,VALID,252,VALID,0.886328,
2011-09-02, 01:06:04,VALID,916.906,VALID,0,VALID,96.5353,VALID,0,VALID,20.9105,VALID,233,VALID,1.27578,
2011-09-02, 01:07:04,VALID,916.928,VALID,0,VALID,96.4667,VALID,0,VALID,20.8519,VALID,253,VALID,1.8457,
2011-09-02, 01:08:04,VALID,916.929,VALID,0,VALID,96.5048,VALID,0,VALID,20.8129,VALID,223,VALID,1.62969,
2011-09-02, 01:09:04,VALID,916.924,VALID,0,VALID,96.421,VALID,0.107441,VALID,20.7544,VALID,255,VALID,2.28008,
2011-09-02, 01:10:04,VALID,916.947,VALID,0,VALID,96.3752,VALID,0.107441,VALID,20.6764,VALID,263,VALID,2.28359,
2011-09-02, 01:11:04,VALID,916.982,VALID,0,VALID,96.4362,VALID,0,VALID,20.6374,VALID,253,VALID,3.12188,
2011-09-02, 01:12:04,VALID,916.944,VALID,0,VALID,96.5353,VALID,0,VALID,20.6179,VALID,340,VALID,0.307031,
2011-09-02, 01:13:04,VALID,916.966,VALID,0,VALID,96.6268,VALID,0.107441,VALID,20.6179,VALID,286,VALID,0.678906,
2011-09-02, 01:14:04,VALID,916.96,VALID,0,VALID,96.5963,VALID,0,VALID,20.5968,VALID,253,VALID,1.36016,
2011-09-02, 01:15:04,VALID,916.972,VALID,0,VALID,96.6649,VALID,0,VALID,20.6179,VALID,253,VALID,0.321484,
2011-09-02, 01:16:04,VALID,916.996,VALID,0,VALID,96.5658,VALID,0,VALID,20.5789,VALID,253,VALID,2.71406,
2011-09-02, 01:17:04,VALID,917.006,VALID,0,VALID,96.7259,VALID,0.107441,VALID,20.6179,VALID,302,VALID,0.727734,
2011-09-02, 01:18:04,VALID,917.039,VALID,0,VALID,96.7488,VALID,0,VALID,20.6374,VALID,302,VALID,0.821484,
2011-09-02, 01:19:04,VALID,917.067,VALID,0,VALID,96.8021,VALID,0.107441,VALID,20.6374,VALID,302,VALID,0.132813,
2011-09-02, 01:20:04,VALID,917.051,VALID,0,VALID,96.6802,VALID,0,VALID,20.6179,VALID,335,VALID,0.872656,
2011-09-02, 01:21:04,VALID,917.056,VALID,0,VALID,96.7183,VALID,0,VALID,20.6179,VALID,315,VALID,0.302344,
2011-09-02, 01:22:04,VALID,917.045,VALID,0,VALID,96.7411,VALID,0,VALID,20.5984,VALID,315,VALID,0.449609,
2011-09-02, 01:23:04,VALID,917.04,VALID,0,VALID,96.7335,VALID,0.107441,VALID,20.5984,VALID,315,VALID,0.0910156,
2011-09-02, 01:24:04,VALID,917.043,VALID,0,VALID,96.6878,VALID,0,VALID,20.5594,VALID,258,VALID,1.60234,
2011-09-02, 01:25:04,VALID,917.085,VALID,0,VALID,96.703,VALID,0,VALID,20.5804,VALID,274,VALID,0.697266,
2011-09-02, 01:26:04,VALID,917.117,VALID,0,VALID,96.7107,VALID,0,VALID,20.5594,VALID,274,VALID,0.507813,
2011-09-02, 01:27:04,VALID,917.129,VALID,0,VALID,96.7107,VALID,0,VALID,20.5789,VALID,274,VALID,0.473437,
2011-09-02, 01:28:04,VALID,917.17,VALID,0,VALID,96.6344,VALID,0,VALID,20.5594,VALID,274,VALID,0.365625,
2011-09-02, 01:29:04,VALID,917.179,VALID,0,VALID,96.6497,VALID,0,VALID,20.5999,VALID,274,VALID,0.383984,
2011-09-02, 01:30:04,VALID,917.137,VALID,0,VALID,96.6573,VALID,0,VALID,20.5984,VALID,274,VALID,0.359375,
2011-09-02, 01:31:04,VALID,917.155,VALID,0,VALID,96.642,VALID,0,VALID,20.6194,VALID,274,VALID,1.04766,
2011-09-02, 01:32:04,VALID,917.149,VALID,0,VALID,96.6497,VALID,0,VALID,20.6179,VALID,274,VALID,0.316406,
2011-09-02, 01:33:04,VALID,917.124,VALID,0,VALID,96.6039,VALID,0,VALID,20.6179,VALID,274,VALID,0.411328,
2011-09-02, 01:34:04,VALID,917.14,VALID,0,VALID,96.5277,VALID,0,VALID,20.5594,VALID,274,VALID,0.40625,
2011-09-02, 01:35:04,VALID,917.12,VALID,0,VALID,96.5048,VALID,0,VALID,20.5789,VALID,13,VALID,1.00312,
2011-09-02, 01:36:04,VALID,917.132,VALID,0,VALID,96.3829,VALID,0,VALID,20.5609,VALID,295,VALID,0.44375,
2011-09-02, 01:37:04,VALID,917.136,VALID,0,VALID,96.4133,VALID,0,VALID,20.5399,VALID,295,VALID,0.476953,
2011-09-02, 01:38:04,VALID,917.094,VALID,0,VALID,96.3371,VALID,0,VALID,20.5204,VALID,16,VALID,1.2707,
2011-09-02, 01:39:04,VALID,917.102,VALID,0,VALID,96.3829,VALID,0,VALID,20.5204,VALID,14,VALID,0.705078,
2011-09-02, 01:40:05,VALID,917.138,VALID,0,VALID,96.3676,VALID,0,VALID,20.5414,VALID,45,VALID,1.3832,
2011-09-02, 01:41:05,VALID,917.128,VALID,0,VALID,96.3447,VALID,0,VALID,20.5219,VALID,35,VALID,1.62422,
2011-09-02, 01:42:05,VALID,917.133,VALID,0,VALID,96.3295,VALID,0,VALID,20.5009,VALID,33,VALID,1.90078,
2011-09-02, 01:43:05,VALID,917.134,VALID,0,VALID,96.2761,VALID,0,VALID,20.4813,VALID,23,VALID,1.60742,
2011-09-02, 01:44:05,VALID,917.176,VALID,0,VALID,96.3829,VALID,0,VALID,20.5204,VALID,32,VALID,1.70039,
2011-09-02, 01:45:05,VALID,917.141,VALID,0,VALID,96.3219,VALID,0,VALID,20.5024,VALID,31,VALID,0.746875,
2011-09-02, 01:46:05,VALID,917.144,VALID,0,VALID,96.3295,VALID,0,VALID,20.4813,VALID,31,VALID,0.79375,
2011-09-02, 01:47:05,VALID,917.175,VALID,0,VALID,96.2304,VALID,0,VALID,20.4618,VALID,38,VALID,1.74844,
2011-09-02, 01:48:05,VALID,917.155,VALID,0,VALID,96.2914,VALID,0,VALID,20.4618,VALID,17,VALID,1.20859,
2011-09-02, 01:49:05,VALID,917.159,VALID,0,VALID,96.2151,VALID,0,VALID,20.4213,VALID,17,VALID,1.1625,
2011-09-02, 01:50:05,VALID,917.154,VALID,0,VALID,96.2609,VALID,0,VALID,20.4423,VALID,21,VALID,1.33086,
2011-09-02, 01:51:05,VALID,917.145,VALID,0,VALID,96.2609,VALID,0,VALID,20.4228,VALID,21,VALID,0.930078,
2011-09-02, 01:52:05,VALID,917.142,VALID,0,VALID,96.3371,VALID,0,VALID,20.4228,VALID,21,VALID,0.586719,
2011-09-02, 01:53:05,VALID,917.127,VALID,0,VALID,96.3752,VALID,0,VALID,20.4423,VALID,21,VALID,1.22891,
2011-09-02, 01:54:05,VALID,917.099,VALID,0,VALID,96.2914,VALID,0,VALID,20.4423,VALID,21,VALID,0.675781,
2011-09-02, 01:55:05,VALID,917.08,VALID,0,VALID,96.2533,VALID,0,VALID,20.4829,VALID,10,VALID,0.957031,
2011-09-02, 01:56:05,VALID,917.06,VALID,0,VALID,96.238,VALID,0,VALID,20.4033,VALID,320,VALID,1.70664,
2011-09-02, 01:57:05,VALID,917,VALID,0,VALID,96.2837,VALID,0,VALID,20.4033,VALID,29,VALID,1.52188,
2011-09-02, 01:58:05,VALID,917.01,VALID,0,VALID,96.2837,VALID,0,VALID,20.4033,VALID,20,VALID,1.57187,
2011-09-02, 01:59:05,VALID,916.992,VALID,0,VALID,96.2837,VALID,0,VALID,20.4033,VALID,26,VALID,1.03359,
2011-09-02, 02:00:05,VALID,916.958,VALID,0,VALID,96.2304,VALID,0,VALID,20.4033,VALID,25,VALID,1.49219,
2011-09-02, 02:01:05,VALID,916.957,VALID,0,VALID,96.2304,VALID,0.107441,VALID,20.3838,VALID,25,VALID,1.11133,
2011-09-02, 02:02:05,VALID,916.926,VALID,0,VALID,96.2304,VALID,0,VALID,20.3643,VALID,338,VALID,1.4625,
2011-09-02, 02:03:05,VALID,916.917,VALID,0,VALID,96.2151,VALID,0,VALID,20.3838,VALID,338,VALID,0.706641,
2011-09-02, 02:04:05,VALID,916.904,VALID,0,VALID,96.2533,VALID,0,VALID,20.3854,VALID,339,VALID,0.862109,
2011-09-02, 02:05:05,VALID,916.93,VALID,0,VALID,96.2456,VALID,0,VALID,20.3643,VALID,341,VALID,0.756641,
2011-09-02, 02:06:05,VALID,916.911,VALID,0,VALID,96.2609,VALID,0,VALID,20.3854,VALID,3,VALID,0.697266,
2011-09-02, 02:07:05,VALID,916.878,VALID,0,VALID,96.2914,VALID,0,VALID,20.3643,VALID,3,VALID,0.665234,
2011-09-02, 02:08:05,VALID,916.883,VALID,0,VALID,96.2533,VALID,0,VALID,20.3643,VALID,3,VALID,0.989062,
2011-09-02, 02:09:05,VALID,916.878,VALID,0,VALID,96.2533,VALID,0,VALID,20.3854,VALID,3,VALID,0.865234,
2011-09-02, 02:10:05,VALID,916.902,VALID,0,VALID,96.2837,VALID,0,VALID,20.3659,VALID,3,VALID,0.353125,
2011-09-02, 02:11:05,VALID,916.889,VALID,0,VALID,96.2837,VALID,0,VALID,20.3643,VALID,3,VALID,0,
2011-09-02, 02:12:05,VALID,916.859,VALID,0,VALID,96.2914,VALID,0,VALID,20.3448,VALID,3,VALID,0.0109375,
2011-09-02, 02:13:05,VALID,916.909,VALID,0,VALID,96.3371,VALID,0,VALID,20.3448,VALID,3,VALID,0.352734,
2011-09-02, 02:14:05,VALID,916.852,VALID,0,VALID,96.3447,VALID,0,VALID,20.3643,VALID,3,VALID,0.346875,
2011-09-02, 02:15:05,VALID,916.87,VALID,0,VALID,96.3371,VALID,0,VALID,20.3448,VALID,3,VALID,0,
2011-09-02, 02:16:05,VALID,916.82,VALID,0,VALID,96.3524,VALID,0,VALID,20.3854,VALID,3,VALID,0,
2011-09-02, 02:17:05,VALID,916.847,VALID,0,VALID,96.3371,VALID,0,VALID,20.3854,VALID,3,VALID,0,
2011-09-02, 02:18:05,VALID,916.8,VALID,0,VALID,96.3447,VALID,0,VALID,20.3854,VALID,3,VALID,0,
2011-09-02, 02:19:05,VALID,916.796,VALID,0,VALID,96.3447,VALID,0,VALID,20.3643,VALID,3,VALID,0.290625,
2011-09-02, 02:20:05,VALID,916.813,VALID,0,VALID,96.3371,VALID,0,VALID,20.3838,VALID,3,VALID,0.247656,
2011-09-02, 02:21:05,VALID,916.809,VALID,0,VALID,96.3142,VALID,0,VALID,20.3838,VALID,3,VALID,0.284375,
2011-09-02, 02:22:05,VALID,916.789,VALID,0,VALID,96.36,VALID,0,VALID,20.4244,VALID,3,VALID,0.0046875,
2011-09-02, 02:23:05,VALID,916.756,VALID,0,VALID,96.2685,VALID,0,VALID,20.4049,VALID,3,VALID,0.427734,
2011-09-02, 02:24:05,VALID,916.717,VALID,0,VALID,96.238,VALID,0,VALID,20.3854,VALID,3,VALID,0.773047,
2011-09-02, 02:25:05,VALID,916.742,VALID,0,VALID,96.2228,VALID,0,VALID,20.3659,VALID,3,VALID,0.593359,
2011-09-02, 02:26:05,VALID,916.718,VALID,0,VALID,96.238,VALID,0,VALID,20.3659,VALID,3,VALID,0.693359,
2011-09-02, 02:27:05,VALID,916.662,VALID,0,VALID,96.2151,VALID,0,VALID,20.3253,VALID,3,VALID,0.521094,
2011-09-02, 02:28:05,VALID,916.645,VALID,0,VALID,96.2304,VALID,0,VALID,20.3659,VALID,41,VALID,0.678906,
2011-09-02, 02:29:05,VALID,916.59,VALID,0,VALID,96.2228,VALID,0,VALID,20.3253,VALID,70,VALID,0.653516,
2011-09-02, 02:30:05,VALID,916.571,VALID,0,VALID,96.238,VALID,0,VALID,20.3448,VALID,70,VALID,0.744531,
2011-09-02, 02:31:05,VALID,916.518,VALID,0,VALID,96.2456,VALID,0,VALID,20.3659,VALID,92,VALID,1.05508,
2011-09-02, 02:32:05,VALID,916.485,VALID,0,VALID,96.2533,VALID,0.107441,VALID,20.3448,VALID,134,VALID,0.666797,
2011-09-02, 02:33:05,VALID,916.444,VALID,0,VALID,96.238,VALID,0,VALID,20.3448,VALID,126,VALID,0.887109,
2011-09-02, 02:34:05,VALID,916.414,VALID,0,VALID,96.1923,VALID,0.107441,VALID,20.3448,VALID,147,VALID,1.05586,
2011-09-02, 02:35:05,VALID,916.384,VALID,0,VALID,96.2151,VALID,0,VALID,20.3448,VALID,142,VALID,0.788672,
2011-09-02, 02:36:05,VALID,916.375,VALID,0,VALID,96.2075,VALID,0,VALID,20.3464,VALID,145,VALID,0.366016,
2011-09-02, 02:37:05,VALID,916.335,VALID,0,VALID,96.2151,VALID,0,VALID,20.3253,VALID,147,VALID,0.770703,
2011-09-02, 02:38:05,VALID,916.304,VALID,0,VALID,96.1999,VALID,0,VALID,20.3464,VALID,149,VALID,1.08984,
2011-09-02, 02:39:05,VALID,916.289,VALID,0,VALID,96.177,VALID,0,VALID,20.3058,VALID,181,VALID,0.886719,
2011-09-02, 02:40:05,VALID,916.291,VALID,0,VALID,96.1694,VALID,0,VALID,20.3058,VALID,160,VALID,0.466797,
2011-09-02, 02:41:05,VALID,916.274,VALID,0,VALID,96.1694,VALID,0,VALID,20.3269,VALID,169,VALID,1.06953,
2011-09-02, 02:42:05,VALID,916.277,VALID,0,VALID,96.1923,VALID,0,VALID,20.3269,VALID,164,VALID,0.819531,
2011-09-02, 02:43:05,VALID,916.272,VALID,0,VALID,96.2228,VALID,0,VALID,20.3058,VALID,177,VALID,1.75039,
2011-09-02, 02:44:05,VALID,916.283,VALID,0,VALID,96.2685,VALID,0,VALID,20.2863,VALID,176,VALID,0.793359,
2011-09-02, 02:45:05,VALID,916.285,VALID,0,VALID,96.2761,VALID,0,VALID,20.2863,VALID,169,VALID,1.27695,
2011-09-02, 02:46:05,VALID,916.263,VALID,0,VALID,96.3142,VALID,0,VALID,20.2863,VALID,154,VALID,0.9,
2011-09-02, 02:47:05,VALID,916.276,VALID,0,VALID,96.36,VALID,0,VALID,20.2863,VALID,169,VALID,1.14883,
2011-09-02, 02:48:05,VALID,916.264,VALID,0,VALID,96.3829,VALID,0,VALID,20.3074,VALID,169,VALID,1.16875,
2011-09-02, 02:49:05,VALID,916.239,VALID,0,VALID,96.421,VALID,0,VALID,20.3074,VALID,169,VALID,0.564062,
2011-09-02, 02:50:05,VALID,916.206,VALID,0,VALID,96.4362,VALID,0,VALID,20.3074,VALID,169,VALID,0.398047,
2011-09-02, 02:51:05,VALID,916.212,VALID,0,VALID,96.4667,VALID,0,VALID,20.3074,VALID,169,VALID,0.904688,
2011-09-02, 02:52:05,VALID,916.152,VALID,0,VALID,96.4591,VALID,0,VALID,20.2863,VALID,169,VALID,0.925391,
2011-09-02, 02:53:05,VALID,916.161,VALID,0,VALID,96.4819,VALID,0,VALID,20.3074,VALID,169,VALID,0.576172,
2011-09-02, 02:54:05,VALID,916.187,VALID,0,VALID,96.5048,VALID,0,VALID,20.2668,VALID,169,VALID,0.669531,
2011-09-02, 02:55:05,VALID,916.134,VALID,0,VALID,96.4972,VALID,0,VALID,20.2668,VALID,169,VALID,0.723047,
2011-09-02, 02:56:05,VALID,916.116,VALID,0,VALID,96.5353,VALID,0,VALID,20.2879,VALID,169,VALID,1.16055,
2011-09-02, 02:57:05,VALID,916.12,VALID,0,VALID,96.5429,VALID,0,VALID,20.2668,VALID,154,VALID,1.16172,
2011-09-02, 02:58:05,VALID,916.14,VALID,0,VALID,96.5582,VALID,0,VALID,20.2879,VALID,160,VALID,1.02813,
2011-09-02, 02:59:05,VALID,916.144,VALID,0,VALID,96.5429,VALID,0,VALID,20.2684,VALID,181,VALID,1.34687,
2011-09-02, 03:00:05,VALID,916.15,VALID,0,VALID,96.5658,VALID,0,VALID,20.2473,VALID,173,VALID,1.69336,
2011-09-02, 03:01:05,VALID,916.167,VALID,0,VALID,96.5429,VALID,0,VALID,20.2684,VALID,163,VALID,2.06445,
2011-09-02, 03:02:05,VALID,916.149,VALID,0,VALID,96.5811,VALID,0,VALID,20.2684,VALID,131,VALID,0.870703,
2011-09-02, 03:03:05,VALID,916.17,VALID,0,VALID,96.5734,VALID,0,VALID,20.2684,VALID,154,VALID,1.64375,
2011-09-02, 03:04:05,VALID,916.157,VALID,0,VALID,96.5963,VALID,0,VALID,20.2684,VALID,189,VALID,0.885156,
2011-09-02, 03:05:05,VALID,916.174,VALID,0,VALID,96.5887,VALID,0,VALID,20.2684,VALID,185,VALID,1.08711,
2011-09-02, 03:06:05,VALID,916.172,VALID,0,VALID,96.6115,VALID,0,VALID,20.2879,VALID,185,VALID,0.613281,
2011-09-02, 03:07:05,VALID,916.126,VALID,0,VALID,96.5963,VALID,0,VALID,20.2684,VALID,185,VALID,0.790234,
2011-09-02, 03:08:05,VALID,916.115,VALID,0,VALID,96.5887,VALID,0,VALID,20.2684,VALID,210,VALID,1.07578,
2011-09-02, 03:09:05,VALID,916.128,VALID,0,VALID,96.5887,VALID,0,VALID,20.2879,VALID,210,VALID,0.837109,
2011-09-02, 03:10:05,VALID,916.105,VALID,0,VALID,96.5734,VALID,0,VALID,20.2684,VALID,210,VALID,0.816406,
2011-09-02, 03:11:05,VALID,916.085,VALID,0,VALID,96.5811,VALID,0,VALID,20.2879,VALID,210,VALID,0.7625,
2011-09-02, 03:12:05,VALID,916.115,VALID,0,VALID,96.5506,VALID,0,VALID,20.2879,VALID,210,VALID,1.39961,
2011-09-02, 03:13:05,VALID,916.104,VALID,0,VALID,96.5582,VALID,0,VALID,20.2879,VALID,210,VALID,0.896094,
2011-09-02, 03:14:05,VALID,916.109,VALID,0,VALID,96.6115,VALID,0,VALID,20.2684,VALID,210,VALID,1.05273,
2011-09-02, 03:15:05,VALID,916.105,VALID,0,VALID,96.6268,VALID,0,VALID,20.2879,VALID,210,VALID,0.544922,
2011-09-02, 03:16:05,VALID,916.109,VALID,0,VALID,96.6268,VALID,0,VALID,20.2879,VALID,210,VALID,0.855859,
2011-09-02, 03:17:05,VALID,916.089,VALID,0,VALID,96.6497,VALID,0,VALID,20.3074,VALID,210,VALID,0.678906,
2011-09-02, 03:18:05,VALID,916.079,VALID,0,VALID,96.6497,VALID,0,VALID,20.2879,VALID,182,VALID,0.938672,
2011-09-02, 03:19:05,VALID,916.081,VALID,0,VALID,96.6649,VALID,0,VALID,20.3074,VALID,201,VALID,0.593359,
2011-09-02, 03:20:05,VALID,916.084,VALID,0,VALID,96.6802,VALID,0,VALID,20.3074,VALID,209,VALID,0.352734,
2011-09-02, 03:21:05,VALID,916.088,VALID,0,VALID,96.6878,VALID,0,VALID,20.3269,VALID,199,VALID,1.07266,
2011-09-02, 03:22:05,VALID,916.11,VALID,0,VALID,96.7107,VALID,0,VALID,20.3074,VALID,191,VALID,0.494531,
2011-09-02, 03:23:05,VALID,916.092,VALID,0,VALID,96.7107,VALID,0,VALID,20.3074,VALID,189,VALID,1.14023,
2011-09-02, 03:24:05,VALID,916.103,VALID,0,VALID,96.7259,VALID,0,VALID,20.3074,VALID,185,VALID,1.00156,
2011-09-02, 03:25:05,VALID,916.104,VALID,0,VALID,96.7259,VALID,0,VALID,20.3269,VALID,181,VALID,1.05234,
2011-09-02, 03:26:05,VALID,916.113,VALID,0,VALID,96.7183,VALID,0,VALID,20.3074,VALID,197,VALID,0.896875,
2011-09-02, 03:27:05,VALID,916.106,VALID,0,VALID,96.7335,VALID,0,VALID,20.2863,VALID,167,VALID,1.59453,
2011-09-02, 03:28:05,VALID,916.084,VALID,0,VALID,96.7411,VALID,0,VALID,20.2879,VALID,167,VALID,1.52422,
2011-09-02, 03:29:05,VALID,916.075,VALID,0,VALID,96.7488,VALID,0,VALID,20.2879,VALID,167,VALID,1.16055,
2011-09-02, 03:30:05,VALID,916.056,VALID,0,VALID,96.764,VALID,0,VALID,20.2879,VALID,167,VALID,0.7625,
2011-09-02, 03:31:05,VALID,916.027,VALID,0,VALID,96.7869,VALID,0,VALID,20.2879,VALID,167,VALID,0.704297,
2011-09-02, 03:32:05,VALID,916.031,VALID,0,VALID,96.8021,VALID,0,VALID,20.2879,VALID,167,VALID,0.532031,
2011-09-02, 03:33:05,VALID,916.005,VALID,0,VALID,96.8403,VALID,0,VALID,20.3089,VALID,167,VALID,0.772266,
2011-09-02, 03:34:05,VALID,916.032,VALID,0,VALID,96.8403,VALID,0,VALID,20.2879,VALID,167,VALID,0.509766,
2011-09-02, 03:35:05,VALID,916.063,VALID,0,VALID,96.8403,VALID,0,VALID,20.2879,VALID,167,VALID,0.0699219,
2011-09-02, 03:36:05,VALID,916.113,VALID,0,VALID,96.8479,VALID,0,VALID,20.2879,VALID,167,VALID,0,
2011-09-02, 03:37:05,VALID,916.107,VALID,0,VALID,96.8555,VALID,0,VALID,20.2879,VALID,167,VALID,0.394531,
2011-09-02, 03:38:05,VALID,916.164,VALID,0,VALID,96.8784,VALID,0,VALID,20.3074,VALID,167,VALID,0.330469,
2011-09-02, 03:39:05,VALID,916.157,VALID,0,VALID,96.8784,VALID,0,VALID,20.2879,VALID,167,VALID,0.212109,
2011-09-02, 03:40:05,VALID,916.154,VALID,0,VALID,96.825,VALID,0,VALID,20.2879,VALID,167,VALID,0.608594,
2011-09-02, 03:41:05,VALID,916.177,VALID,0,VALID,96.8555,VALID,0,VALID,20.2473,VALID,167,VALID,0.500781,
2011-09-02, 03:42:05,VALID,916.145,VALID,0,VALID,96.8631,VALID,0,VALID,20.2489,VALID,167,VALID,0.489453,
2011-09-02, 03:43:05,VALID,916.152,VALID,0,VALID,96.8784,VALID,0,VALID,20.2684,VALID,167,VALID,0.445313,
2011-09-02, 03:44:05,VALID,916.154,VALID,0,VALID,96.8936,VALID,0,VALID,20.2684,VALID,167,VALID,0.952734,